This demonstration page uses our WeatherBlox Daily Observations layout. Learn more.

Left ArrowRight Arrow

Hourly Observations for October 19, 2016

Temp ( °F °C ) Dew Point ( °F °C ) Humidity (%) Winds ( mph kmh ) Pressure ( in mb ) Visibility ( mi km ) Precip ( " mm )
12:53 am 00:53 Partly Cloudy 35 1.7 34 1.1 96 96 E 6 9 30.11 1020 10 16 0.00 0.00
1:38 am 01:38 Cloudy 34 1 34 1 100 100 SW 6 9 30.15 1021 8 13 0.00 0.00
1:53 am 01:53 Cloudy with Mist and Fog 34 1.1 34 1.1 100 100 S 5 7 30.13 1020 6 10 0.00 0.03
2:53 am 02:53 Partly Cloudy 33 0.6 32 0 96 96 W 5 7 30.16 1021 7 11 0.00 0.00
3:00 am 03:00 Mostly Cloudy 34 1 32 0 93 93 W 5 7 30.18 1022 7 11 0.00 0.00
3:53 am 03:53 Cloudy 33 0.6 33 0.6 100 100 SSW 5 7 30.16 1022 8 13 0.00 0.00
4:31 am 04:31 Cloudy 33 0.6 33 0.6 100 100 SW 7 11 30.21 1023 8 13 0.00 0.00
4:53 am 04:53 Cloudy 34 1.1 33 0.6 97 97 SW 5 7 30.18 1022 8 13 0.00 0.00
5:53 am 05:53 Cloudy 35 1.7 34 1.1 96 96 SW 7 11 30.19 1022 8 13 0.00 0.00
6:53 am 06:53 Cloudy 35 1.7 34 1.1 96 96 W 6 9 30.22 1023 9 14 0.00 0.00
7:53 am 07:53 Cloudy 35 1.7 35 1.7 100 100 W 5 7 30.23 1024 9 14 0.00 0.00
8:53 am 08:53 Mostly Cloudy 36 2.2 35 1.7 97 97 NW 5 7 30.26 1025 8 13 0.00 0.00
9:53 am 09:53 Partly Cloudy with Mist and Fog 36 2.2 35 1.7 97 97 WNW 13 20 30.29 1026 5 8 0.00 0.00
9:56 am 09:56 Partly Cloudy with Mist and Fog 36 2 34 1 93 93 WNW 12 19 30.30 1026 2 3 0.00 0.00
10:01 am 10:01 Mostly Cloudy with Mist and Fog 35 1.7 34 1.1 96 96 WNW 9 15 30.30 1026 1 2 0.00 0.00
10:10 am 10:10 Mostly Cloudy with Fog 34 1 34 1 100 100 WNW 12 19 30.33 1027 1 1 0.00 0.00
10:18 am 10:18 Mostly Cloudy with Fog 34 1 34 1 100 100 WNW 10 17 30.33 1027 0 0 0.00 0.00
10:53 am 10:53 Mostly Cloudy with Mist and Fog 35 1.7 35 1.7 100 100 WNW 14 22 30.31 1027 1 1 0.00 0.00
10:56 am 10:56 Cloudy with Mist and Fog 36 2 36 2 100 100 WNW 13 20 30.33 1027 3 4 0.00 0.00
11:03 am 11:03 Cloudy 36 2 36 2 100 100 WNW 13 20 30.33 1027 8 13 0.00 0.00
11:32 am 11:32 Mostly Cloudy 39 4 36 2 87 87 WNW 15 24 30.33 1027 10 16 0.00 0.00
11:43 am 11:43 Mostly Cloudy 41 5 36 2.2 82 82 NW 16 26 30.33 1027 10 16 0.00 0.00
11:53 am 11:53 Mostly Cloudy 41 5 36 2.2 82 82 WNW 10 17 30.32 1027 10 16 0.00 0.00
12:53 pm 12:53 Sunny 45 7.2 37 2.8 74 74 W 9 15 30.32 1027 10 16 0.00 0.00
1:53 pm 13:53 Sunny 48 8.9 38 3.3 68 68 NW 5 7 30.32 1027 10 16 0.00 0.00
2:53 pm 14:53 Sunny 52 11.1 38 3.3 59 59 Calm 30.30 1026 8 13 0.00 0.00
3:24 pm 15:24 Hazy 54 12 37 3 54 54 VRB 3 6 30.21 1023 3 4 0.00 0.00
3:31 pm 15:31 Sunny 53 11.7 36 2.2 52 52 W 5 7 30.21 1023 7 11 0.00 0.00
3:53 pm 15:53 Sunny 55 12.8 36 2.2 49 49 VRB 3 6 30.29 1026 9 14 0.00 0.00
4:53 pm 16:53 Mostly Sunny 54 12.2 35 1.7 49 49 Calm 30.28 1026 10 16 0.00 0.00
5:53 pm 17:53 Sunny 51 10.6 37 2.8 59 59 E 5 7 30.29 1026 10 16 0.00 0.00
6:53 pm 18:53 Clear 43 6.1 37 2.8 80 80 ESE 7 11 30.31 1026 10 16 0.00 0.00
7:53 pm 19:53 Mostly Cloudy 40 4.4 34 1.1 79 79 SSW 3 6 30.32 1027 10 16 0.00 0.00
8:53 pm 20:53 Mostly Cloudy 41 5 33 0.6 73 73 WNW 5 7 30.33 1027 10 16 0.00 0.00
9:53 pm 21:53 Mostly Cloudy with Haze 44 6.7 33 0.6 65 65 WNW 7 11 30.33 1027 6 10 0.00 0.00
10:53 pm 22:53 Mostly Clear 41 5 32 0 70 70 W 8 13 30.35 1028 10 16 0.00 0.00
11:53 pm 23:53 Clear 36 2.2 30 -1.1 79 79 SSW 9 15 30.33 1027 10 16 0.00 0.00

Powered by AerisWeather